TimeCST,TemperatureF,Dew PointF,Humidity,Sea Level PressureIn,VisibilityMPH,Wind Direction,Wind SpeedMPH,Gust SpeedMPH,PrecipitationIn,Events,Conditions,WindDirDegrees,DateUTC
12:53 AM,32.0,28.9,88,30.39,7.0,Calm,Calm,-,N/A,,Clear,0,2012-11-18 06:53:00
1:53 AM,30.9,28.0,89,30.39,8.0,Calm,Calm,-,N/A,,Clear,0,2012-11-18 07:53:00
2:53 AM,30.9,27.0,85,30.38,6.0,Calm,Calm,-,N/A,,Clear,0,2012-11-18 08:53:00
3:53 AM,30.0,28.0,92,30.38,8.0,Calm,Calm,-,N/A,,Clear,0,2012-11-18 09:53:00
4:53 AM,30.0,27.0,88,30.40,7.0,Calm,Calm,-,N/A,,Clear,0,2012-11-18 10:53:00
5:53 AM,28.9,28.0,96,30.40,4.0,Calm,Calm,-,N/A,,Clear,0,2012-11-18 11:53:00
6:53 AM,28.9,26.1,89,30.41,7.0,Calm,Calm,-,N/A,,Clear,0,2012-11-18 12:53:00
7:53 AM,36.0,34.0,93,30.40,4.0,Calm,Calm,-,N/A,,Clear,0,2012-11-18 13:53:00
8:53 AM,45.0,37.0,74,30.41,8.0,ESE,3.5,-,N/A,,Clear,120,2012-11-18 14:53:00
9:53 AM,51.1,37.9,61,30.42,10.0,Calm,Calm,-,N/A,,Clear,0,2012-11-18 15:53:00
10:53 AM,57.0,37.0,47,30.41,10.0,SSE,4.6,-,N/A,,Clear,150,2012-11-18 16:53:00
11:53 AM,60.1,35.1,39,30.38,10.0,Calm,Calm,-,N/A,,Clear,0,2012-11-18 17:53:00
12:53 PM,61.0,35.1,38,30.35,10.0,SSE,4.6,-,N/A,,Clear,150,2012-11-18 18:53:00
1:53 PM,62.1,35.1,37,30.33,10.0,Variable,3.5,-,N/A,,Clear,0,2012-11-18 19:53:00
2:53 PM,62.1,33.1,34,30.33,10.0,WSW,3.5,-,N/A,,Clear,240,2012-11-18 20:53:00
3:53 PM,61.0,34.0,36,30.32,10.0,Calm,Calm,-,N/A,,Clear,0,2012-11-18 21:53:00
4:53 PM,54.0,34.0,47,30.33,10.0,Calm,Calm,-,N/A,,Clear,0,2012-11-18 22:53:00
5:53 PM,48.0,35.1,61,30.34,10.0,Calm,Calm,-,N/A,,Clear,0,2012-11-18 23:53:00
6:53 PM,43.0,35.1,74,30.34,10.0,Calm,Calm,-,N/A,,Clear,0,2012-11-19 00:53:00
7:53 PM,42.1,35.1,76,30.35,10.0,Calm,Calm,-,N/A,,Clear,0,2012-11-19 01:53:00
8:53 PM,37.0,32.0,82,30.35,10.0,Calm,Calm,-,N/A,,Clear,0,2012-11-19 02:53:00
9:53 PM,37.9,33.1,83,30.34,10.0,Calm,Calm,-,N/A,,Clear,0,2012-11-19 03:53:00
10:53 PM,37.0,33.1,86,30.33,9.0,Calm,Calm,-,N/A,,Clear,0,2012-11-19 04:53:00
11:53 PM,36.0,33.1,89,30.33,10.0,Calm,Calm,-,N/A,,Clear,0,2012-11-19 05:53:00